Regional Weather Roundup
Issued by NWS

Home | Current Version | Previous Version | Text Only | Print | Product List | Glossary On
Versions: 1 2 3 4 5 6 7 8 9 10 11 12 13 14 15 16 17 18 19 20 21 22 23 24 25 26 27
000
ASUS45 KREV 171010
RWRNV
NEVADA REGIONAL WEATHER ROUNDUP
NATIONAL WEATHER SERVICE RENO NV
200 AM PST TUE JAN 17 2017

NOTE: "FAIR" INDICATES FEW OR NO CLOUDS BELOW 12,000 FEET WITH NO
SIGNIFICANT WEATHER AND/OR OBSTRUCTIONS TO VISIBILITY.

NVZ001-003-004-171100-
WESTERN NEVADA

CITY           SKY/WX    TMP DP  RH WIND       PRES   REMARKS
RENO           MOCLDY    26  22  84 S8        30.23F
CARSON CITY    CLOUDY    27  23  86 SW3       30.25F
MINDEN         CLOUDY    25  23  93 CALM      30.25F
PYRAMID LAKE     N/A     30 N/A N/A S5          N/A
FALLON         NOT AVBL
LOVELOCK       CLOUDY    27  23  85 W3        30.27F
HAWTHORNE        N/A    N/A N/A N/A CALM      30.27S
$$

NVZ002-CAZ072-073-171100-
NORTHERN AND CENTRAL SIERRA

CITY           SKY/WX    TMP DP  RH WIND       PRES   REMARKS
S. LAKE TAHOE  PTCLDY    18  14  84 S3        30.17S
TRUCKEE        FOG       16  14  93 CALM      30.20S VSB 1/4
SQUAW VLY 8000   N/A     25  21  86 CALM        N/A
SUSANVILLE     CLOUDY    32  27  80 CALM      30.24F
MAMMOTH LAKES  FAIR      12   1  60 CALM      30.16F
BRIDGEPORT       N/A      5  -1  76 CALM      30.17F
$$

NVZ030-031-036-171100-
NORTHERN NEVADA

CITY           SKY/WX    TMP DP  RH WIND       PRES   REMARKS
ELKO           CLOUDY    17  13  84 CALM      30.26F
WINNEMUCCA     CLEAR     16  14  92 SE5       30.26F
WENDOVER       CLOUDY    25  18  74 NE3       30.28S
$$

NVZ035-037-171100-
CENTRAL NEVADA

CITY           SKY/WX    TMP DP  RH WIND       PRES   REMARKS
ELY            FOG        5   2  87 S13       30.20F VSB 3/4 WCI -12
EUREKA           N/A     13   9  84 SE6       30.22R
$$

NVZ013-014-171100-
SOUTH CENTRAL NEVADA

CITY           SKY/WX    TMP DP  RH WIND       PRES   REMARKS
TONOPAH        CLEAR     21  12  68 N8        30.18F
$$

NVZ017-020-022-171100-
SOUTHERN NEVADA

CITY           SKY/WX    TMP DP  RH WIND       PRES   REMARKS
LAS VEGAS      CLEAR     40  23  50 SW5       30.13R
N. LAS VEGAS   CLEAR     41  19  41 CALM      30.13S
NELLIS AFB     CLEAR     40  21  45 N7        30.14R
HENDERSON      CLEAR     36  22  56 CALM      30.15R
MERCURY        NOT AVBL
$$




USA.gov is the U.S. government's official web portal to all federal, state and local government web resources and services.